Location: Allen Generating Plant
(35.0740°N, 90.1490°W)
Time: 16:53:06
(UTC+00:00)

A-11 Canister half - Pass Details

Date: 18 December 2025
Orbit: 1526 x 1682 km, 47.3° (Epoch: 12 January)

Event Time Altitude Azimuth Distance (km) Brightness Sun altitude
Rises 00:22:45 0° 289° (WNW) 4,899 12.6 -18.2°
Reaches altitude 10° 00:28:02 10° 266° (W) 3,879 12.3 -19.2°
Maximum altitude 00:32:30 14° 239° (WSW) 3,531 11.9 -20.1°
Drops below altitude 10° 00:36:56 10° 211° (SSW) 3,815 11.7 -21.0°
Sets 00:42:07 0° 188° (S) 4,761 11.9 -22.0°
